Simultaneous Nadir Overpasses (SNOs) Predictions

Prediction of SNOs between GOES-17 and METOP-B Satellite Orbit:

Table of predicted SNOs for the next 14.0 days since TLE Epoch: 11/23/2024
Index Date Time (GOES-17) GOES-17 Lat,Lon METOP-B Lat,Lon Distance(km) Time Diff (sec)
1 11/23/2024 04:19:22 -0.01,-104.66 -0.19,-105.44 89.00 80
2 11/24/2024 03:55:56 -0.01,-104.67 0.91,-100.43 481.98 80
3 11/25/2024 16:14:40 0.00,-104.73 0.07,-104.98 28.42 80
4 11/28/2024 04:12:46 -0.00,-104.69 0.02,-104.54 16.09 80
5 11/29/2024 16:31:29 -0.00,-104.74 0.95,-109.09 495.28 80
6 11/30/2024 16:13:23 -0.01,-104.75 -0.17,-104.08 76.08 80
7 12/02/2024 04:32:14 0.01,-104.70 -0.88,-108.65 450.52 80
8 12/03/2024 04:08:48 0.01,-104.69 0.25,-103.64 120.33 80
9 12/04/2024 16:27:31 -0.00,-104.74 0.76,-108.18 391.65 80
10 12/05/2024 16:09:24 0.01,-104.74 -0.31,-103.16 179.82 80
